When you browse on this site, cookies collect data to enhance your experience and personalize the content and advertising you see.
Visit our Privacy Policy to learn more. By continuing to use the site, you agree to this use of cookies and data.

Meteo pe oră la Shrewsbury

Astăzi, 8 August, Sâmbătă

Timp Temperatura Precipitaţii Vânt Presiune Umiditate
00:00 +17°C° 0 mm 2 m/s 759 mmHg 94%
01:00 +17°C° 0 mm 2 m/s 759 mmHg 95%
02:00 +17°C° 0 mm 2 m/s 759 mmHg 96%
03:00 +16°C° 0 mm 2 m/s 759 mmHg 97%
04:00 +16°C° 0 mm 2 m/s 759 mmHg 96%
05:00 +17°C° 0 mm 3 m/s 760 mmHg 95%
06:00 +17°C° 0 mm 3 m/s 760 mmHg 93%
07:00 +18°C° 0 mm 3 m/s 760 mmHg 88%
08:00 +19°C° 0 mm 3 m/s 760 mmHg 82%
09:00 +20°C° 0 mm 3 m/s 760 mmHg 76%
10:00 +22°C° 0 mm 3 m/s 760 mmHg 72%
11:00 +24°C° 0 mm 3 m/s 760 mmHg 68%
12:00 +26°C° 0 mm 3 m/s 760 mmHg 64%
13:00 +26°C° 0 mm 3 m/s 760 mmHg 66%
14:00 +26°C° 0 mm 3 m/s 760 mmHg 67%
15:00 +26°C° 0 mm 3 m/s 760 mmHg 69%
16:00 +25°C° 0 mm 3 m/s 759 mmHg 71%
17:00 +24°C° 0 mm 3 m/s 759 mmHg 73%
18:00 +22°C° 0 mm 3 m/s 759 mmHg 76%
19:00 +21°C° 0 mm 3 m/s 759 mmHg 78%
20:00 +19°C° 0 mm 3 m/s 760 mmHg 80%
21:00 +18°C° 0 mm 3 m/s 760 mmHg 82%
22:00 +18°C° 0.1 mm 2 m/s 760 mmHg 85%
23:00 +17°C° 0.1 mm 2 m/s 760 mmHg 89%

Mâine, 9 August, Duminică

Timp Temperatura Precipitaţii Vânt Presiune Umiditate
00:00 +16°C° 0.1 mm 2 m/s 760 mmHg 92%
01:00 +17°C° 0.1 mm 2 m/s 759 mmHg 92%
02:00 +17°C° 0.1 mm 2 m/s 759 mmHg 92%
03:00 +17°C° 0.1 mm 3 m/s 759 mmHg 92%
04:00 +17°C° 0 mm 2 m/s 759 mmHg 92%
05:00 +17°C° 0 mm 2 m/s 758 mmHg 92%
06:00 +17°C° 0 mm 2 m/s 758 mmHg 92%
07:00 +18°C° 0 mm 3 m/s 758 mmHg 89%
08:00 +19°C° 0 mm 3 m/s 758 mmHg 87%
09:00 +19°C° 0 mm 3 m/s 758 mmHg 85%
10:00 +20°C° 0 mm 3 m/s 758 mmHg 83%
11:00 +21°C° 0 mm 3 m/s 757 mmHg 81%
12:00 +22°C° 0 mm 3 m/s 757 mmHg 78%
13:00 +24°C° 0 mm 3 m/s 757 mmHg 77%
14:00 +24°C° 0 mm 3 m/s 756 mmHg 76%
15:00 +25°C° 0 mm 3 m/s 756 mmHg 75%
16:00 +25°C° 0 mm 3 m/s 756 mmHg 77%
17:00 +24°C° 0 mm 3 m/s 756 mmHg 80%
18:00 +24°C° 0 mm 3 m/s 755 mmHg 82%
19:00 +22°C° 0 mm 3 m/s 756 mmHg 86%
20:00 +21°C° 0 mm 3 m/s 756 mmHg 89%
21:00 +20°C° 0 mm 2 m/s 756 mmHg 93%
22:00 +19°C° 0.2 mm 2 m/s 756 mmHg 93%
23:00 +19°C° 0.2 mm 2 m/s 755 mmHg 93%

Poimâine, 10 August, Luni

Timp Temperatura Precipitaţii Vânt Presiune Umiditate
00:00 +20°C° 0.2 mm 1 m/s 755 mmHg 94%
01:00 +20°C° 0.3 mm 1 m/s 755 mmHg 94%
02:00 +19°C° 0.3 mm 1 m/s 755 mmHg 95%
03:00 +19°C° 0.3 mm 1 m/s 755 mmHg 95%
04:00 +19°C° 0.2 mm 1 m/s 754 mmHg 94%
05:00 +20°C° 0.2 mm 1 m/s 754 mmHg 94%
06:00 +20°C° 0.2 mm 1 m/s 754 mmHg 93%
07:00 +20°C° 0 mm 1 m/s 754 mmHg 91%
08:00 +21°C° 0 mm 1 m/s 754 mmHg 89%
09:00 +22°C° 0 mm 1 m/s 754 mmHg 87%
10:00 +22°C° 0 mm 1 m/s 754 mmHg 85%
11:00 +23°C° 0 mm 1 m/s 754 mmHg 83%
12:00 +23°C° 0 mm 1 m/s 754 mmHg 82%
13:00 +23°C° 0 mm 1 m/s 754 mmHg 81%
14:00 +24°C° 0 mm 2 m/s 754 mmHg 80%
15:00 +24°C° 0 mm 2 m/s 754 mmHg 79%
16:00 +23°C° 0.1 mm 2 m/s 754 mmHg 81%
17:00 +23°C° 0.1 mm 2 m/s 754 mmHg 83%
18:00 +21°C° 0.1 mm 3 m/s 754 mmHg 85%
19:00 +20°C° 0 mm 3 m/s 755 mmHg 88%
20:00 +19°C° 0 mm 2 m/s 755 mmHg 91%
21:00 +17°C° 0 mm 2 m/s 755 mmHg 94%
22:00 +17°C° 0 mm 2 m/s 755 mmHg 95%
23:00 +17°C° 0 mm 2 m/s 756 mmHg 95%

11 August, Marţi

Timp Temperatura Precipitaţii Vânt Presiune Umiditate
00:00 +16°C° 0 mm 2 m/s 756 mmHg 96%
01:00 +16°C° 0 mm 2 m/s 756 mmHg 96%
02:00 +16°C° 0 mm 2 m/s 756 mmHg 96%
03:00 +16°C° 0 mm 2 m/s 756 mmHg 97%
04:00 +16°C° 0 mm 2 m/s 756 mmHg 96%
05:00 +16°C° 0 mm 2 m/s 756 mmHg 95%
06:00 +16°C° 0 mm 2 m/s 756 mmHg 94%
07:00 +17°C° 0 mm 2 m/s 756 mmHg 88%
08:00 +19°C° 0 mm 3 m/s 756 mmHg 83%
09:00 +20°C° 0 mm 3 m/s 757 mmHg 78%
10:00 +21°C° 0 mm 3 m/s 757 mmHg 74%
11:00 +22°C° 0 mm 3 m/s 757 mmHg 70%
12:00 +23°C° 0 mm 4 m/s 757 mmHg 65%
13:00 +23°C° 0 mm 4 m/s 757 mmHg 65%
14:00 +22°C° 0 mm 4 m/s 757 mmHg 64%
15:00 +22°C° 0 mm 4 m/s 757 mmHg 64%
16:00 +22°C° 0 mm 4 m/s 757 mmHg 66%
17:00 +21°C° 0 mm 4 m/s 757 mmHg 69%
18:00 +20°C° 0 mm 4 m/s 757 mmHg 72%
19:00 +18°C° 0 mm 4 m/s 757 mmHg 77%
20:00 +16°C° 0 mm 3 m/s 757 mmHg 82%
21:00 +14°C° 0 mm 3 m/s 758 mmHg 87%
22:00 +13°C° 0 mm 3 m/s 758 mmHg 89%
23:00 +14°C° 0 mm 2 m/s 758 mmHg 90%

12 August, Miercuri

Timp Temperatura Precipitaţii Vânt Presiune Umiditate
00:00 +14°C° 0 mm 2 m/s 758 mmHg 92%
01:00 +14°C° 0 mm 2 m/s 758 mmHg 91%
02:00 +14°C° 0 mm 2 m/s 758 mmHg 89%
03:00 +14°C° 0 mm 2 m/s 758 mmHg 87%
04:00 +15°C° 0 mm 2 m/s 758 mmHg 86%
05:00 +15°C° 0 mm 2 m/s 758 mmHg 86%
06:00 +15°C° 0 mm 2 m/s 758 mmHg 85%
07:00 +17°C° 0 mm 3 m/s 758 mmHg 84%
08:00 +18°C° 0 mm 3 m/s 758 mmHg 82%
09:00 +19°C° 0 mm 3 m/s 758 mmHg 81%
10:00 +20°C° 0 mm 3 m/s 758 mmHg 78%
11:00 +21°C° 0 mm 3 m/s 758 mmHg 74%
12:00 +23°C° 0 mm 4 m/s 758 mmHg 71%
13:00 +22°C° 0.1 mm 3 m/s 758 mmHg 73%
14:00 +22°C° 0.1 mm 3 m/s 757 mmHg 74%
15:00 +22°C° 0.1 mm 3 m/s 757 mmHg 75%
16:00 +21°C° 0.2 mm 3 m/s 757 mmHg 79%
17:00 +20°C° 0.2 mm 3 m/s 757 mmHg 83%
18:00 +19°C° 0.2 mm 3 m/s 757 mmHg 88%
19:00 +18°C° 0.3 mm 2 m/s 757 mmHg 89%
20:00 +17°C° 0.3 mm 2 m/s 757 mmHg 91%
21:00 +17°C° 0.3 mm 2 m/s 757 mmHg 92%
22:00 +16°C° 1 mm 2 m/s 757 mmHg 94%
23:00 +16°C° 1 mm 2 m/s 757 mmHg 95%

13 August, Joi

Timp Temperatura Precipitaţii Vânt Presiune Umiditate
00:00 +16°C° 1 mm 2 m/s 757 mmHg 96%
01:00 +16°C° 0.7 mm 2 m/s 757 mmHg 96%
02:00 +16°C° 0.7 mm 3 m/s 757 mmHg 96%
03:00 +14°C° 0.7 mm 3 m/s 756 mmHg 97%
04:00 +14°C° 0.3 mm 3 m/s 757 mmHg 96%
05:00 +14°C° 0.3 mm 3 m/s 757 mmHg 95%
06:00 +14°C° 0.3 mm 4 m/s 757 mmHg 95%
07:00 +14°C° 0 mm 4 m/s 757 mmHg 93%
08:00 +14°C° 0 mm 4 m/s 757 mmHg 92%
09:00 +14°C° 0 mm 3 m/s 757 mmHg 91%
10:00 +16°C° 0 mm 3 m/s 757 mmHg 89%
11:00 +16°C° 0 mm 3 m/s 758 mmHg 87%
12:00 +16°C° 0 mm 3 m/s 758 mmHg 86%
13:00 +17°C° 0 mm 3 m/s 758 mmHg 84%
14:00 +17°C° 0 mm 3 m/s 758 mmHg 82%
15:00 +18°C° 0 mm 3 m/s 758 mmHg 81%
16:00 +17°C° 0 mm 3 m/s 758 mmHg 82%
17:00 +17°C° 0 mm 3 m/s 758 mmHg 83%
18:00 +17°C° 0 mm 3 m/s 758 mmHg 85%
19:00 +16°C° 0 mm 3 m/s 758 mmHg 87%
20:00 +15°C° 0 mm 2 m/s 759 mmHg 90%
21:00 +15°C° 0 mm 2 m/s 759 mmHg 93%
22:00 +14°C° 0 mm 2 m/s 759 mmHg 94%
23:00 +14°C° 0 mm 2 m/s 759 mmHg 94%
Arată mai mult